Total_Precipitation_Accumulation
0.00 0.00 0.00 0.00 0.00 0.00 0.00 0.00 0.01 0.02 0.09 0.31 0.49 0.52 0.46 0.41 0.37 0.37 0.51 0.65 0.81 1.01 1.24 1.29 1.01 0.73 0.55 0.45 0.46 0.55 0.55 0.48 0.37 0.12 0.19 0.30 0.32 0.22 0.09 0.02 0.00 0.00 0.00
0.00 0.00 0.00 0.00 0.00 0.00 0.00 0.01 0.00 0.02 0.06 0.18 0.31 0.48 0.56 0.45 0.41 0.32 0.33 0.36 0.47 0.66 0.77 0.86 0.98 1.05 0.84 0.58 0.54 0.54 0.54 0.49 0.46 0.22 0.14 0.25 0.27 0.25 0.20 0.11 0.03 0.00 0.00
0.00 0.00 0.00 0.00 0.00 0.00 0.00 0.01 0.01 0.01 0.05 0.10 0.25 0.34 0.47 0.48 0.39 0.39 0.28 0.24 0.24 0.32 0.43 0.61 0.68 0.68 0.77 0.81 0.72 0.63 0.59 0.59 0.50 0.36 0.18 0.19 0.26 0.26 0.23 0.17 0.09 0.02 0.00
0.00 0.00 0.00 0.00 0.01 0.01 0.00 0.00 0.01 0.01 0.03 0.07 0.14 0.28 0.35 0.46 0.46 0.36 0.36 0.29 0.26 0.33 0.35 0.39 0.53 0.58 0.46 0.47 0.62 0.68 0.65 0.66 0.57 0.41 0.22 0.13 0.17 0.19 0.20 0.15 0.14 0.11 0.05
0.00 0.00 0.00 0.00 0.01 0.02 0.01 0.00 0.01 0.02 0.03 0.05 0.07 0.18 0.33 0.35 0.43 0.44 0.37 0.33 0.27 0.29 0.34 0.34 0.38 0.41 0.41 0.44 0.51 0.57 0.60 0.62 0.53 0.40 0.31 0.24 0.16 0.15 0.14 0.12 0.15 0.13 0.11
0.00 0.00 0.00 0.01 0.01 0.04 0.02 0.01 0.01 0.02 0.03 0.08 0.06 0.08 0.24 0.37 0.31 0.37 0.36 0.32 0.32 0.31 0.31 0.29 0.30 0.43 0.42 0.51 0.50 0.57 0.58 0.52 0.46 0.34 0.23 0.18 0.16 0.16 0.18 0.22 0.21 0.16 0.14
0.00 0.00 0.00 0.01 0.01 0.04 0.05 0.03 0.02 0.03 0.04 0.08 0.09 0.07 0.10 0.21 0.30 0.28 0.37 0.31 0.27 0.30 0.30 0.31 0.31 0.30 0.41 0.44 0.54 0.66 0.56 0.53 0.46 0.31 0.25 0.14 0.08 0.10 0.23 0.34 0.34 0.29 0.18
0.00 0.00 0.00 0.01 0.01 0.04 0.06 0.05 0.03 0.04 0.05 0.07 0.09 0.11 0.08 0.09 0.19 0.26 0.32 0.36 0.28 0.22 0.21 0.29 0.33 0.29 0.31 0.37 0.50 0.66 0.57 0.40 0.38 0.30 0.19 0.10 0.08 0.13 0.30 0.39 0.42 0.44 0.30
0.00 0.00 0.00 0.01 0.01 0.04 0.07 0.08 0.06 0.05 0.06 0.08 0.08 0.11 0.13 0.08 0.11 0.16 0.28 0.40 0.40 0.28 0.18 0.18 0.26 0.30 0.36 0.50 0.51 0.57 0.47 0.33 0.31 0.37 0.27 0.21 0.25 0.30 0.32 0.36 0.38 0.35 0.29
0.00 0.00 0.01 0.01 0.02 0.04 0.08 0.10 0.10 0.08 0.05 0.08 0.08 0.08 0.14 0.10 0.11 0.13 0.23 0.40 0.42 0.34 0.26 0.20 0.26 0.22 0.36 0.48 0.52 0.51 0.48 0.28 0.26 0.32 0.36 0.36 0.36 0.30 0.30 0.29 0.25 0.29 0.23
0.00 0.00 0.00 0.01 0.02 0.04 0.08 0.11 0.13 0.12 0.07 0.06 0.10 0.09 0.11 0.11 0.10 0.13 0.21 0.38 0.37 0.28 0.30 0.24 0.19 0.20 0.26 0.37 0.39 0.36 0.29 0.20 0.34 0.44 0.40 0.44 0.42 0.33 0.24 0.22 0.21 0.23 0.24
0.00 0.00 0.00 0.00 0.02 0.04 0.07 0.12 0.13 0.16 0.13 0.06 0.12 0.12 0.12 0.12 0.17 0.17 0.21 0.29 0.28 0.27 0.26 0.20 0.16 0.21 0.22 0.29 0.37 0.29 0.36 0.53 0.67 0.74 0.68 0.63 0.47 0.37 0.24 0.21 0.21 0.22 0.21
0.00 0.00 0.00 0.00 0.01 0.03 0.08 0.13 0.15 0.15 0.18 0.14 0.12 0.16 0.14 0.17 0.19 0.20 0.21 0.29 0.29 0.26 0.21 0.19 0.21 0.24 0.28 0.40 0.45 0.42 0.52 0.66 0.75 0.73 0.52 0.36 0.25 0.22 0.23 0.29 0.33 0.34 0.31
0.00 0.00 0.00 0.00 0.01 0.01 0.04 0.10 0.17 0.17 0.17 0.20 0.17 0.16 0.20 0.22 0.28 0.24 0.30 0.35 0.38 0.25 0.22 0.26 0.29 0.34 0.47 0.62 0.72 0.80 0.70 0.57 0.55 0.44 0.33 0.24 0.27 0.33 0.40 0.39 0.42 0.37 0.39
0.00 0.00 0.00 0.01 0.02 0.02 0.03 0.08 0.17 0.19 0.25 0.31 0.29 0.25 0.30 0.29 0.37 0.56 0.57 0.62 0.53 0.43 0.42 0.40 0.56 0.68 0.80 0.89 0.94 0.84 0.67 0.62 0.63 0.50 0.46 0.43 0.41 0.42 0.37 0.33 0.43 0.48 0.50
0.02 0.03 0.03 0.04 0.05 0.05 0.06 0.05 0.07 0.16 0.20 0.21 0.27 0.37 0.29 0.36 0.49 0.53 0.56 0.65 0.73 0.65 0.67 0.55 0.51 0.64 0.71 0.60 0.57 0.60 0.50 0.45 0.43 0.42 0.45 0.44 0.41 0.38 0.33 0.31 0.40 0.47 0.46
0.04 0.04 0.05 0.05 0.05 0.06 0.06 0.07 0.09 0.06 0.10 0.17 0.20 0.24 0.28 0.31 0.40 0.43 0.42 0.51 0.61 0.55 0.63 0.45 0.38 0.43 0.49 0.47 0.38 0.32 0.30 0.29 0.31 0.34 0.35 0.38 0.38 0.38 0.41 0.36 0.37 0.44 0.45
0.00 0.01 0.02 0.02 0.03 0.04 0.05 0.06 0.09 0.13 0.11 0.12 0.14 0.17 0.25 0.26 0.31 0.36 0.45 0.56 0.63 0.52 0.41 0.33 0.26 0.26 0.34 0.36 0.39 0.31 0.24 0.23 0.29 0.32 0.34 0.37 0.38 0.42 0.46 0.40 0.36 0.42 0.42
0.00 0.00 0.01 0.03 0.03 0.05 0.07 0.08 0.08 0.11 0.14 0.13 0.14 0.13 0.15 0.22 0.23 0.33 0.56 0.64 0.52 0.43 0.32 0.23 0.18 0.18 0.23 0.27 0.27 0.32 0.29 0.27 0.29 0.32 0.36 0.42 0.43 0.44 0.47 0.38 0.33 0.39 0.43
0.00 0.01 0.03 0.03 0.03 0.03 0.05 0.07 0.08 0.09 0.14 0.15 0.15 0.17 0.15 0.20 0.23 0.30 0.48 0.67 0.53 0.47 0.45 0.31 0.20 0.18 0.19 0.23 0.24 0.26 0.38 0.41 0.37 0.37 0.36 0.35 0.43 0.42 0.46 0.48 0.45 0.46 0.49
0.01 0.01 0.01 0.02 0.02 0.03 0.05 0.07 0.08 0.10 0.13 0.16 0.15 0.17 0.22 0.29 0.27 0.32 0.40 0.53 0.59 0.54 0.54 0.46 0.33 0.27 0.25 0.26 0.29 0.29 0.36 0.49 0.48 0.46 0.42 0.42 0.41 0.50 0.49 0.54 0.50 0.42 0.38
0.02 0.02 0.01 0.01 0.02 0.03 0.05 0.08 0.10 0.10 0.11 0.15 0.16 0.14 0.18 0.19 0.21 0.29 0.32 0.36 0.47 0.52 0.56 0.49 0.45 0.36 0.38 0.38 0.37 0.38 0.38 0.47 0.53 0.53 0.50 0.48 0.50 0.50 0.56 0.65 0.69 0.61 0.59
0.03 0.02 0.01 0.01 0.01 0.02 0.05 0.06 0.09 0.10 0.10 0.13 0.16 0.17 0.15 0.18 0.18 0.22 0.28 0.27 0.33 0.45 0.51 0.48 0.44 0.40 0.37 0.43 0.35 0.36 0.43 0.39 0.46 0.49 0.56 0.58 0.63 0.64 0.64 0.68 0.66 0.69 0.68
0.03 0.03 0.02 0.02 0.01 0.02 0.04 0.05 0.07 0.08 0.10 0.11 0.14 0.17 0.16 0.17 0.19 0.19 0.22 0.26 0.27 0.35 0.45 0.46 0.42 0.41 0.36 0.44 0.45 0.41 0.43 0.41 0.38 0.50 0.57 0.66 0.68 0.73 0.72 0.72 0.62 0.55 0.54
0.03 0.02 0.01 0.01 0.01 0.01 0.02 0.03 0.05 0.07 0.08 0.10 0.13 0.16 0.16 0.16 0.19 0.19 0.21 0.26 0.28 0.30 0.38 0.41 0.43 0.43 0.41 0.40 0.46 0.47 0.50 0.68 0.71 0.87 0.86 0.86 0.77 0.70 0.71 0.68 0.63 0.57 0.58
0.03 0.01 0.01 0.01 0.01 0.01 0.02 0.03 0.04 0.06 0.07 0.09 0.11 0.14 0.17 0.16 0.18 0.20 0.21 0.24 0.28 0.29 0.32 0.36 0.41 0.47 0.49 0.45 0.45 0.62 0.73 0.70 0.81 1.02 1.06 1.07 0.99 0.89 0.79 0.71 0.62 0.63 0.66